Flag for Norway Weather past 2 weeks in Fagernes, Norway

Now
32 °F

Fog.


Feels Like: 32 °F
Forecast: 31 / 62 °F
Wind: No wind

Location: Fagernes Leirin

Current Time: Sep 18, 2014 at 8:08:14 AM

Latest Report: Sep 18, 2014 at 7:20 AM


Visibility: 0 mi

Pressure: 30.21 "Hg

Humidity: 100%

Dew point: 32 °F

Location of FagernesLocation

Historic Weather in Fagernes — Graph

°F

Fagernes temperature yesterday

Maximum temperature yesterday: 59 °F (at 3:50 PM)
Minimum temperature yesterday: 34 °F (at 7:20 AM)
Average temperature yesterday: 49 °F

Past Weeks' High & Low Weather Summary

 TemperatureHumidityPressure
High66 °F (Sep 3, 3:20 PM)100% (Sep 11, 7:20 AM)30.48 "Hg (Sep 11, 7:20 AM)
Low34 °F (Sep 17, 7:20 AM)30% (Sep 4, 5:20 PM)29.80 "Hg (Sep 9, 8:20 AM)
Average53 °F71%30.21 "Hg
* Reported Sep 2 5:20 PM — Sep 17 5:20 PM, Fagernes, Weather by CustomWeather, © 2014

Note: Actual official high and low records may vary slightly from our data, if they occured in-between our weather recording intervals... More about our weather records

Advertising

Fagernes weather history for previous 24 hours

 ConditionsComfort  
Time TempWeatherWind HumidityBarometerVisibility
5:20 PM
Sep 17
57 °FPassing clouds.2 mph55%30.24 "HgN/A
4:50 PM59 °FPassing clouds.2 mph51%30.24 "HgN/A
4:20 PM59 °FPassing clouds.6 mph51%30.24 "HgN/A
3:50 PM59 °FPassing clouds.3 mph51%30.24 "HgN/A
2:50 PM57 °FPassing clouds.5 mph55%30.27 "HgN/A
1:50 PM55 °FPassing clouds.5 mph55%30.27 "HgN/A
1:20 PM55 °FPassing clouds.3 mph55%30.27 "HgN/A
12:20 PM52 °FPassing clouds.6 mph62%30.30 "HgN/A
11:50 AM52 °FPassing clouds.6 mph62%30.30 "HgN/A
11:20 AM50 °FPassing clouds.6 mph67%30.30 "HgN/A
10:50 AM50 °FPassing clouds.6 mph67%30.30 "HgN/A
10:20 AM48 °FPassing clouds.7 mph71%30.30 "HgN/A
9:50 AM48 °FPassing clouds.3 mph71%30.30 "HgN/A
9:20 AM43 °FPassing clouds.No wind93%30.30 "HgN/A
8:50 AM39 °FPassing clouds.No wind93%30.30 "HgN/A
8:20 AM36 °FFog.2 mph93%30.30 "Hg0 mi
Weather by CustomWeather, © 2014

See weather overviewHow to use our weather pages